Temperature
8 7 7 7 6 6 6 6 6 6 6 6 5 5 5 5 4 4 4 3 3 3 2 2 1 1 1 0 0 -0 -1 -2 -3 -1 -1 -1 -1 -1 -1 -1 -1 -1 -2
7 6 6 6 6 6 6 5 5 5 5 5 5 4 4 4 3 3 3 2 2 2 2 1 1 0 0 -0 -1 -1 -1 -2 -2 -2 -2 -2 -2 -2 -2 -2 -2 -2 -2
6 6 5 5 5 5 5 5 5 5 5 4 4 3 3 3 2 2 2 1 1 1 1 0 0 -0 -1 -1 -1 -1 -2 -2 -3 -3 -3 -3 -3 -3 -3 -3 -3 -3 -3
5 5 5 5 4 4 4 4 4 4 3 3 3 2 2 2 1 1 1 0 0 0 0 -0 -0 -1 -1 -1 -2 -2 -2 -3 -3 -4 -4 -4 -4 -4 -4 -4 -4 -4 -4
4 4 4 4 4 4 3 3 3 3 2 2 2 1 1 1 0 0 -0 -0 -1 -1 -1 -1 -1 -1 -1 -2 -2 -2 -3 -3 -4 -4 -5 -5 -5 -6 -5 -4 -5 -4 -4
3 3 3 3 3 3 3 2 2 2 2 1 1 1 0 -0 -0 -1 -1 -2 -2 -2 -2 -2 -2 -2 -2 -2 -2 -3 -3 -3 -4 -4 -5 -5 -5 -5 -5 -5 -5 -6 -7
3 3 3 2 2 2 2 1 1 1 1 0 0 -0 -1 -1 -1 -2 -2 -2 -2 -2 -2 -2 -2 -2 -2 -2 -2 -3 -3 -3 -3 -3 -4 -4 -4 -4 -5 -5 -6 -6 -6
2 2 2 2 1 1 1 0 0 -0 -1 -1 -1 -1 -2 -1 -2 -2 -2 -3 -3 -3 -3 -3 -3 -3 -3 -3 -3 -3 -3 -3 -3 -3 -4 -4 -4 -4 -5 -5 -5 -6 -6
2 2 1 1 0 0 -0 -1 -1 -1 -1 -2 -2 -2 -2 -2 -2 -2 -3 -3 -3 -3 -3 -3 -3 -4 -3 -4 -4 -4 -4 -4 -3 -4 -4 -4 -4 -4 -5 -5 -6 -7 -7
1 1 0 -0 -1 -1 -1 -1 -2 -2 -2 -3 -3 -3 -3 -3 -3 -3 -3 -4 -4 -4 -4 -3 -4 -4 -4 -4 -4 -4 -4 -4 -4 -4 -4 -5 -5 -5 -5 -5 -6 -6 -7
0 0 -0 -1 -1 -2 -2 -2 -3 -3 -3 -3 -4 -4 -4 -3 -3 -4 -4 -4 -4 -4 -4 -4 -4 -4 -4 -4 -4 -4 -4 -4 -4 -5 -5 -5 -5 -5 -5 -5 -6 -6 -7
-0 -0 -1 -1 -2 -3 -3 -3 -3 -4 -4 -4 -5 -5 -4 -4 -4 -4 -4 -4 -4 -4 -4 -4 -4 -4 -4 -4 -4 -4 -4 -4 -5 -5 -5 -5 -5 -6 -6 -6 -6 -6 -6
-1 -1 -2 -2 -3 -3 -4 -4 -4 -5 -5 -6 -6 -6 -5 -5 -5 -5 -5 -5 -5 -5 -5 -5 -5 -5 -5 -5 -4 -4 -5 -5 -5 -5 -5 -5 -5 -6 -6 -6 -6 -6 -6
-2 -2 -3 -3 -4 -4 -4 -5 -5 -6 -6 -6 -6 -6 -6 -6 -5 -5 -5 -5 -5 -5 -5 -5 -5 -5 -5 -5 -5 -5 -5 -5 -5 -5 -5 -5 -6 -6 -6 -6 -6 -7 -7
-3 -3 -4 -4 -5 -5 -5 -6 -6 -6 -6 -6 -6 -6 -6 -6 -5 -5 -5 -5 -5 -5 -5 -5 -5 -5 -5 -5 -5 -5 -5 -5 -6 -6 -6 -6 -6 -6 -6 -6 -6 -7 -7
-4 -4 -5 -5 -5 -6 -6 -6 -6 -6 -6 -6 -6 -6 -6 -6 -6 -5 -5 -5 -5 -5 -5 -5 -5 -6 -6 -6 -6 -6 -6 -6 -6 -6 -6 -6 -6 -6 -6 -7 -7 -7 -7
-4 -5 -5 -6 -6 -7 -7 -7 -7 -6 -6 -6 -6 -6 -6 -6 -6 -6 -6 -6 -5 -5 -6 -6 -6 -6 -6 -6 -6 -6 -6 -6 -6 -6 -6 -6 -6 -7 -7 -7 -7 -7 -8
-5 -5 -6 -6 -7 -7 -7 -7 -7 -7 -7 -6 -6 -6 -6 -6 -6 -6 -6 -6 -6 -6 -6 -6 -6 -6 -6 -6 -6 -7 -7 -7 -7 -7 -7 -7 -7 -7 -7 -7 -8 -8 -8
-5 -5 -6 -7 -7 -7 -7 -7 -7 -7 -7 -7 -7 -6 -6 -6 -6 -6 -6 -6 -6 -6 -6 -7 -7 -7 -7 -7 -7 -7 -7 -7 -7 -7 -7 -7 -7 -7 -8 -8 -8 -8 -9
-5 -6 -7 -7 -7 -7 -7 -7 -7 -7 -7 -7 -7 -7 -6 -7 -6 -6 -7 -7 -7 -7 -7 -7 -7 -7 -7 -7 -7 -7 -7 -7 -7 -7 -7 -7 -8 -8 -8 -8 -8 -9 -9
-6 -6 -7 -7 -7 -7 -7 -7 -7 -7 -7 -7 -7 -7 -7 -7 -7 -7 -7 -7 -7 -7 -7 -7 -7 -7 -7 -7 -7 -7 -7 -7 -7 -8 -8 -8 -8 -8 -8 -8 -9 -9 -9
-6 -7 -7 -7 -7 -7 -7 -7 -7 -7 -7 -7 -7 -7 -7 -7 -7 -7 -8 -8 -8 -8 -8 -7 -7 -7 -7 -8 -8 -8 -8 -8 -8 -8 -8 -8 -8 -8 -9 -9 -9 -9 -9
-7 -7 -7 -7 -7 -7 -7 -7 -7 -7 -7 -7 -7 -7 -8 -8 -8 -8 -8 -8 -8 -8 -8 -8 -8 -8 -8 -8 -8 -8 -8 -8 -8 -8 -8 -8 -9 -9 -9 -9 -9 -9 -10
-7 -7 -8 -8 -8 -8 -8 -8 -8 -8 -8 -8 -8 -8 -8 -8 -8 -8 -8 -8 -8 -8 -8 -8 -8 -8 -8 -8 -8 -8 -8 -8 -8 -9 -9 -9 -9 -9 -9 -9 -10 -10 -10
-7 -7 -8 -8 -8 -8 -8 -8 -8 -8 -8 -8 -8 -8 -8 -8 -8 -9 -9 -9 -8 -8 -8 -8 -8 -8 -8 -8 -8 -8 -8 -8 -9 -9 -9 -9 -9 -9 -9 -10 -10 -10 -10
-7 -8 -8 -8 -8 -8 -9 -9 -8 -8 -8 -8 -8 -8 -9 -9 -9 -9 -9 -9 -9 -8 -8 -8 -8 -8 -8 -8 -8 -8 -9 -9 -9 -9 -9 -9 -9 -10 -10 -10 -10 -10 -11
Wind_Speed
7 6 6 7 6 6 7 8 8 9 9 9 10 10 10 11 11 11 13 13 15 16 15 17 19 17 15 14 14 14 16 16 21 16 8 9 12 13 12 16 20 21 22
6 6 7 7 7 8 8 9 9 9 9 10 10 10 11 11 11 12 14 14 14 16 16 16 18 15 18 16 15 17 17 17 19 23 10 9 13 12 12 11 12 17 18
6 7 8 8 9 9 10 10 10 10 10 10 10 11 12 12 12 12 13 14 14 16 15 16 17 16 18 16 17 17 16 16 17 19 17 9 10 9 10 10 12 10 14
7 8 9 10 10 10 11 11 11 10 11 11 11 12 12 12 12 13 13 14 15 15 15 15 16 16 18 17 17 18 16 16 16 17 17 11 10 7 8 10 11 11 12
8 9 10 10 10 10 11 11 11 11 12 12 12 13 12 11 11 12 12 14 14 15 15 15 16 20 23 20 17 14 15 15 15 16 17 13 12 8 10 9 13 10 11
8 10 11 11 11 11 11 12 12 12 12 12 13 14 14 13 20 25 20 13 13 14 15 14 15 19 24 29 31 29 23 19 18 17 16 17 15 14 11 12 12 11 10
10 11 11 11 12 12 13 12 13 13 12 13 13 13 15 17 26 27 27 18 14 13 13 13 13 14 20 15 22 29 28 32 29 20 20 19 15 14 14 15 14 12 13
10 11 11 12 13 13 13 13 13 12 13 13 14 14 15 18 26 27 27 18 14 13 12 13 14 14 14 16 14 16 17 18 20 19 17 16 14 12 14 16 15 14 9
11 12 12 12 14 14 15 15 14 14 14 14 14 15 16 19 25 27 26 13 12 13 12 12 13 14 21 25 17 16 16 16 22 27 26 22 25 26 20 12 12 11 11
13 13 12 12 14 15 16 16 14 13 15 15 15 14 15 17 24 27 26 11 12 12 10 11 18 19 22 24 15 14 16 14 12 12 16 19 17 20 26 17 14 13 8
13 13 13 12 13 15 15 14 14 15 15 15 16 15 14 17 21 25 25 12 10 12 11 9 10 20 23 23 20 13 17 14 10 11 11 10 10 10 11 12 13 13 11
13 14 14 13 13 13 14 15 14 14 15 15 15 15 11 13 18 20 24 23 20 13 12 10 11 21 23 23 18 17 20 17 8 8 9 9 9 9 9 10 11 12 12
14 14 14 14 12 12 13 15 15 13 13 14 14 15 14 10 13 23 24 24 24 15 11 18 20 23 21 15 17 19 16 9 7 8 9 10 9 8 8 8 9 10 11
15 15 14 14 14 12 11 12 12 13 13 14 14 15 14 13 11 10 11 13 17 15 13 16 20 20 15 14 13 11 7 7 7 8 8 7 7 7 9 8 8 8 8
14 14 14 13 14 14 12 11 13 12 15 17 14 14 15 15 16 24 19 12 11 12 12 8 6 6 6 6 6 6 6 6 7 6 7 7 8 8 8 7 7 7 7
14 13 12 12 13 13 14 14 18 20 25 26 25 23 17 22 28 27 27 26 25 22 15 8 7 7 7 7 6 6 5 6 6 6 7 7 7 8 7 6 6 7 8
13 14 13 13 13 13 14 15 16 17 21 23 24 25 24 26 26 26 25 23 21 19 9 7 7 7 7 6 6 6 5 5 5 5 6 6 6 7 7 7 7 7 7
13 16 15 13 13 13 14 14 14 15 16 13 16 23 25 24 24 23 22 18 11 9 6 7 7 7 6 6 6 5 5 4 5 5 5 6 6 6 7 7 7 8 7
13 11 12 12 12 13 13 13 13 14 14 14 13 15 20 21 21 20 17 8 9 8 7 7 7 7 6 6 5 5 5 5 5 5 5 5 6 6 6 7 7 11 9
11 19 19 14 13 13 13 13 13 13 13 13 13 12 12 13 10 10 8 7 7 8 7 7 7 6 6 5 5 5 5 5 5 5 5 5 5 6 6 7 7 7 7
11 14 20 16 12 13 13 13 13 12 12 13 12 14 19 12 10 10 9 8 8 8 7 7 6 6 5 5 4 5 5 4 4 4 4 5 5 5 5 6 7 7 6
11 12 12 13 13 12 13 12 12 12 13 14 12 13 19 11 9 9 9 8 7 7 6 6 6 5 5 4 4 4 4 4 4 4 4 4 5 5 5 5 6 6 6
11 13 13 13 12 16 16 12 12 12 12 13 12 12 11 10 9 9 8 8 7 6 6 5 5 5 4 4 4 4 5 5 5 5 5 5 5 5 5 6 7 7 7
11 12 14 13 13 12 13 13 12 12 12 12 11 11 10 9 9 9 8 7 6 6 6 5 5 6 7 5 4 4 4 4 4 5 6 6 6 6 6 6 7 8 8
10 12 13 12 13 13 13 13 12 12 12 12 11 10 10 9 9 8 7 7 7 7 7 6 5 5 6 6 5 5 7 8 7 5 5 6 7 7 7 7 7 7 8
11 12 12 12 12 12 12 13 13 13 12 11 10 9 9 9 9 8 7 7 6 6 6 5 6 6 7 6 7 8 10 10 10 9 5 5 6 6 7 7 8 8 8
Wind_Direction
334 330 326 317 309 302 291 284 282 282 281 278 274 271 267 264 257 252 250 247 246 247 242 240 241 236 237 235 231 231 232 231 250 257 217 207 207 219 229 228 226 231 236
323 322 315 308 306 301 293 288 285 282 281 277 276 274 272 269 263 257 259 255 251 251 248 244 245 240 237 236 233 233 233 230 238 255 245 216 217 217 221 224 226 228 227
323 319 313 309 305 299 295 293 291 287 285 281 276 274 274 272 268 263 260 260 256 254 251 247 247 242 242 239 234 235 234 234 234 246 252 228 224 217 219 227 229 228 227
318 314 307 302 298 294 293 291 290 287 286 284 280 277 275 274 271 268 265 264 262 258 254 250 248 243 244 241 239 237 234 234 235 240 248 239 228 204 209 221 231 226 231
314 309 301 297 294 293 293 291 290 288 286 283 284 283 279 277 275 271 267 264 262 262 259 253 250 249 247 247 244 239 232 235 235 238 244 242 232 211 215 212 228 226 228
306 300 298 299 298 296 295 294 293 291 288 286 284 285 284 283 287 289 287 274 266 263 262 258 254 257 258 258 255 248 236 231 232 234 238 238 234 222 216 215 221 222 231
300 298 298 298 296 294 294 294 293 293 291 289 286 285 285 286 292 294 292 289 277 270 265 264 264 259 260 251 256 258 254 245 235 229 235 236 231 220 215 219 217 217 224
298 296 295 295 295 296 295 295 294 293 293 292 290 288 287 289 295 296 296 292 282 275 268 264 264 262 256 255 249 249 250 253 250 242 235 233 229 221 213 217 218 223 226
297 295 295 295 298 300 299 298 297 297 296 292 291 290 289 292 295 297 296 288 281 276 271 266 265 263 266 268 261 252 251 249 253 251 245 237 232 229 220 216 215 219 227
297 296 296 296 297 298 298 298 297 296 295 296 294 290 289 290 293 296 296 288 283 282 275 267 272 273 273 271 263 256 254 247 238 245 248 247 241 235 229 217 211 215 216
296 298 298 296 294 296 296 296 297 297 297 296 295 293 288 287 293 296 296 292 282 283 282 277 269 279 280 277 270 258 256 250 234 234 236 235 230 227 228 222 211 213 214
299 300 300 298 297 301 298 299 297 297 299 299 298 297 290 287 291 293 295 295 294 290 287 282 276 283 282 278 274 265 262 258 237 227 231 231 225 222 221 221 217 217 218
303 303 303 302 298 296 297 300 303 300 299 300 300 300 299 294 292 297 298 298 298 295 285 286 288 290 290 286 281 277 269 255 235 229 228 228 222 215 208 211 215 217 220
304 305 305 305 304 301 297 297 299 300 299 299 299 301 302 301 296 293 289 292 293 292 288 286 288 289 286 278 277 280 268 248 240 235 227 220 209 207 209 207 209 206 213
303 304 305 303 303 304 300 296 297 290 291 298 299 300 301 302 300 303 304 299 295 287 291 281 274 275 270 265 262 259 254 251 248 235 227 216 209 209 209 201 200 198 204
305 307 306 305 304 304 305 303 298 297 300 302 301 300 299 298 303 306 307 306 307 305 303 291 284 278 272 267 262 256 248 245 240 230 224 215 207 203 201 194 193 198 208
296 302 304 304 304 304 305 306 307 307 304 303 304 305 305 306 308 310 310 310 309 310 302 291 282 277 273 267 260 254 251 244 234 225 220 212 203 199 195 196 196 201 209
294 299 303 301 301 301 301 302 302 305 308 307 306 307 309 309 311 312 313 314 309 306 286 284 284 281 275 270 263 258 254 246 235 225 217 210 203 199 198 201 201 204 210
298 300 300 300 299 299 300 300 300 300 300 302 304 306 309 312 312 311 314 306 301 300 295 288 284 281 276 267 262 256 250 245 235 221 215 208 202 199 204 205 206 216 214
297 301 307 305 303 302 301 300 300 300 300 301 303 305 309 310 308 309 308 300 298 297 295 292 288 282 277 270 263 257 250 243 229 220 215 207 202 202 207 207 207 210 214
299 302 305 305 301 300 300 300 299 299 300 301 300 303 310 312 310 308 306 301 297 295 293 291 287 283 275 267 261 253 248 242 227 218 212 207 202 206 208 208 209 210 213
297 299 300 301 302 301 300 300 301 301 301 301 303 305 310 309 303 302 301 299 296 292 288 286 284 277 270 263 255 249 245 241 230 217 213 209 207 209 208 210 212 213 215
296 299 303 302 301 302 304 301 300 300 300 301 303 305 306 304 302 302 302 301 300 297 295 291 287 282 274 264 253 242 240 239 229 215 212 213 213 213 212 214 215 217 223
297 302 304 304 303 302 301 302 301 300 300 301 302 302 302 303 303 302 301 300 299 297 294 292 286 281 279 276 265 251 243 240 226 218 211 213 216 217 216 219 223 226 228
302 303 303 302 302 302 302 301 301 300 300 301 302 302 303 302 300 299 298 297 297 297 298 297 292 288 282 277 271 263 261 258 251 234 214 217 220 219 222 226 229 232 234
303 303 302 302 301 301 300 300 301 301 301 301 301 301 300 299 298 297 297 295 296 297 297 296 292 291 288 282 275 275 276 269 260 253 236 220 223 229 228 233 232 234 237
Height
1492 1489 1486 1482 1479 1476 1472 1469 1465 1461 1457 1453 1449 1445 1441 1437 1434 1430 1426 1423 1419 1416 1414 1412 1409 1409 1408 1407 1407 1406 1405 1404 1398 1391 1396 1399 1402 1404 1406 1408 1409 1411 1413
1487 1484 1480 1477 1474 1470 1466 1462 1458 1453 1449 1444 1440 1435 1431 1427 1424 1420 1416 1412 1409 1405 1403 1401 1398 1398 1395 1395 1394 1393 1392 1391 1389 1383 1383 1387 1389 1392 1395 1397 1398 1399 1401
1482 1478 1475 1471 1467 1463 1459 1454 1450 1445 1440 1435 1430 1425 1421 1417 1413 1409 1405 1401 1397 1394 1391 1389 1386 1386 1383 1382 1381 1380 1379 1379 1378 1375 1371 1375 1377 1380 1382 1384 1386 1387 1389
1477 1473 1469 1465 1460 1455 1451 1446 1441 1436 1431 1426 1421 1416 1411 1406 1402 1398 1394 1390 1386 1382 1380 1377 1375 1374 1371 1370 1369 1368 1368 1368 1367 1365 1362 1364 1366 1367 1370 1371 1373 1375 1377
1471 1467 1462 1458 1453 1448 1443 1437 1432 1427 1422 1416 1411 1406 1401 1397 1392 1387 1383 1378 1374 1371 1368 1366 1364 1362 1360 1359 1357 1355 1356 1355 1354 1354 1352 1353 1354 1356 1355 1358 1361 1363 1365
1465 1461 1456 1451 1445 1440 1434 1429 1423 1418 1412 1407 1401 1396 1390 1386 1382 1378 1373 1368 1364 1360 1356 1354 1352 1351 1349 1347 1346 1345 1344 1342 1342 1342 1340 1340 1340 1343 1346 1348 1351 1353 1353
1459 1455 1449 1443 1437 1432 1426 1420 1414 1408 1402 1396 1391 1386 1380 1375 1372 1367 1363 1359 1354 1350 1347 1344 1341 1339 1337 1335 1334 1333 1333 1332 1331 1330 1328 1327 1330 1333 1337 1339 1340 1340 1342
1453 1448 1442 1436 1429 1423 1417 1411 1405 1399 1393 1386 1381 1375 1370 1365 1361 1357 1352 1348 1343 1340 1337 1334 1331 1328 1326 1325 1322 1320 1319 1319 1320 1320 1317 1318 1321 1324 1327 1329 1331 1332 1335
1446 1440 1435 1428 1422 1415 1409 1402 1396 1390 1383 1377 1371 1366 1360 1355 1352 1347 1343 1338 1333 1330 1327 1325 1321 1318 1316 1315 1312 1309 1307 1306 1308 1309 1309 1310 1312 1314 1317 1320 1321 1324 1324
1439 1433 1427 1421 1415 1408 1401 1394 1388 1381 1374 1368 1362 1357 1351 1345 1342 1338 1334 1329 1324 1321 1317 1315 1313 1309 1307 1305 1302 1300 1297 1296 1298 1298 1299 1300 1302 1305 1307 1309 1310 1313 1314
1432 1425 1419 1414 1407 1400 1393 1386 1380 1372 1365 1359 1353 1347 1342 1338 1333 1329 1326 1322 1317 1312 1309 1306 1303 1301 1298 1296 1294 1291 1289 1289 1289 1289 1290 1291 1292 1294 1297 1300 1301 1303 1306
1424 1417 1411 1405 1399 1392 1385 1377 1371 1365 1357 1350 1344 1337 1333 1329 1325 1321 1318 1315 1311 1306 1301 1298 1295 1292 1289 1287 1285 1283 1282 1282 1281 1281 1281 1282 1283 1285 1288 1291 1293 1295 1298
1416 1409 1402 1396 1390 1384 1377 1369 1363 1357 1350 1343 1337 1330 1324 1321 1317 1314 1310 1306 1302 1298 1294 1290 1287 1284 1281 1279 1277 1276 1275 1274 1273 1273 1273 1274 1276 1278 1280 1283 1285 1288 1290
1408 1401 1394 1387 1380 1374 1369 1363 1356 1350 1343 1337 1331 1325 1319 1313 1309 1305 1301 1297 1294 1290 1286 1282 1279 1276 1274 1271 1269 1268 1267 1267 1266 1266 1266 1268 1269 1271 1273 1275 1278 1280 1282
1401 1394 1387 1380 1373 1366 1360 1356 1350 1344 1339 1333 1326 1320 1314 1307 1303 1300 1296 1290 1286 1282 1278 1274 1271 1268 1266 1264 1262 1261 1260 1260 1260 1260 1260 1261 1263 1264 1266 1268 1271 1273 1275
1393 1386 1379 1373 1366 1359 1352 1346 1341 1337 1332 1326 1321 1315 1308 1303 1297 1292 1288 1284 1279 1276 1272 1267 1264 1262 1259 1257 1256 1255 1254 1254 1253 1254 1254 1255 1257 1258 1260 1262 1264 1266 1268
1388 1380 1373 1366 1360 1353 1347 1340 1332 1326 1323 1318 1313 1308 1302 1296 1291 1286 1281 1277 1273 1269 1265 1261 1258 1256 1254 1252 1251 1249 1249 1248 1248 1248 1249 1250 1251 1253 1255 1256 1258 1260 1261
1381 1374 1367 1360 1354 1347 1341 1335 1328 1321 1314 1308 1304 1300 1295 1289 1285 1280 1275 1271 1266 1263 1260 1256 1253 1251 1249 1247 1246 1245 1244 1243 1243 1243 1244 1245 1246 1247 1249 1250 1252 1253 1255
1373 1366 1360 1353 1348 1342 1335 1329 1323 1317 1310 1303 1297 1292 1288 1283 1278 1274 1270 1265 1261 1257 1254 1251 1248 1246 1244 1242 1241 1240 1239 1238 1238 1238 1239 1240 1241 1242 1243 1245 1246 1247 1248
1365 1360 1354 1347 1341 1335 1329 1323 1317 1311 1305 1299 1293 1287 1282 1277 1272 1268 1264 1260 1257 1253 1250 1247 1244 1242 1239 1238 1236 1235 1234 1234 1233 1234 1234 1235 1236 1237 1238 1239 1240 1241 1241
1358 1351 1346 1340 1334 1328 1323 1317 1311 1305 1299 1294 1288 1283 1279 1273 1268 1263 1259 1255 1252 1248 1245 1242 1240 1237 1235 1233 1232 1231 1230 1229 1229 1229 1230 1230 1231 1231 1232 1233 1234 1234 1235
1351 1345 1339 1334 1328 1322 1316 1311 1305 1300 1294 1288 1282 1277 1273 1268 1263 1259 1254 1251 1247 1244 1241 1238 1236 1233 1231 1230 1228 1227 1226 1225 1225 1225 1225 1225 1226 1226 1227 1227 1228 1228 1229
1344 1338 1332 1327 1321 1315 1310 1304 1299 1294 1288 1283 1277 1272 1267 1263 1258 1254 1250 1246 1243 1240 1237 1234 1232 1229 1228 1226 1224 1223 1222 1221 1221 1221 1221 1221 1221 1221 1221 1222 1222 1222 1222
1338 1332 1326 1319 1314 1308 1303 1298 1293 1288 1282 1277 1272 1267 1262 1258 1253 1249 1245 1242 1239 1236 1233 1230 1228 1226 1224 1222 1221 1219 1218 1217 1217 1216 1216 1216 1216 1216 1216 1216 1216 1216 1216
1331 1325 1319 1313 1307 1302 1297 1291 1287 1282 1277 1272 1267 1262 1257 1253 1248 1245 1241 1238 1235 1232 1229 1227 1224 1222 1220 1218 1217 1216 1215 1214 1213 1212 1212 1211 1211 1211 1211 1210 1210 1210 1209
1324 1318 1312 1307 1301 1296 1291 1285 1280 1276 1271 1266 1262 1257 1252 1248 1244 1240 1237 1234 1231 1228 1226 1223 1221 1219 1217 1215 1213 1212 1211 1210 1209 1208 1207 1207 1206 1206 1205 1204 1203 1203 1202